KINEIS-3A (61223 NORAD) Tracking and Keplerian Element Data

This shows tracking and keplerian element data for the satellite.

Feedback or suggestion? Click here.




ElementValue
Catalog61223
NameKINEIS-3A
Epoch Orbit323
Epoch Day286.86289597
Epoch Year2024
RAAN13.2165
Inclination98.0171
Eccentricity0.0001849
Argument of Perigee228.2259
Mean Anonmoly131.8793
Mean Motion14.77774076
Decay Rate0.00011282
L11 61223U 24172D 24286.86289597 .00011282 00000+0 15770-2 0 9991
L22 61223 98.0171 13.2165 0001849 228.2259 131.8793 14.77774076 3232



Live tracking and technical data element details for KINEIS-3A (NORAD 61223). KINEIS-3A can be tracked NOW for your location showing map with azimuth and elevation plus other details from your city location.







IsCatalogInMostPopularTable: catalog: 61223, numindb: 23
Update: records affected: 1



GetName: 61223 KINEIS-3A

Hit Count: updated at: Fri, 06 Dec 2024 10:11:45 GMT